Find Starlink 3451

NORAD ID: 51749 Int'l Des: 2022-016 Owner: SPXS Country: US Constellation: starlink operational
LEOCIRCULAR

当前视图

正在加载3D地球...

About Starlink 3451

Starlink 3451 (NORAD 51749) is a starlink constellation satellite (v1.5) launched Feb 21, 2022 by SPXS of US. It operates in LEO, CIRCULAR orbit with a mass of 297.00 kg.

关于 Starlink 3451

正在加载描述...

即将过境

Passes for default location (London). Set your location on the main map for personalized predictions.

高度历史

Loading altitude history...

两行轨道根数

1 51749U 22016AM 26194.66668981 .00052382 00000-0 16899-2 0 9994
2 51749 53.1608 111.2659 0001443 92.2707 28.1608 15.31662531 5761
Epoch: Jul 13, 2026 • Age: 9 hours

当前状态

高度 471.1 km
远地点 / 近地点 N/A
速度 7.63 km/s
星下点 23.41°N, 178.61°W
发射日期 Feb 21, 2022
运行时间 4.3 years
类型 internet

技术详情

分类 Payload
质量 297.00 kg
干质量 275.00 kg
总质量 297.00 kg
长度 0.20 m
直径 2.80 m
跨度 9.00 m
形状 Box + pan
制造商 SPXS
平台类型 Starlink
阶段状态 In Orbit
所有者/国家 SPXS/US

Most Searched